sat.trackr.live / text

‹ back to catalog

STARLINK-35214

NORAD 65747 · 2025-216P

PAYLOAD ACTIVE UNKNOWN

§ Identity

Operator
Country
US
Launch date
2025-09-25
Launch site
AFETR
Launch vehicle
Mass (kg)
RCS (m²)

Purposes: comms

External: N2YO · Heavens-Above · Gunter

§ Orbital elements

Epoch: 2026-09-20T22:50:16.420416Z

Period
93.85 min
Inclination
53.1567°
Eccentricity
0.0000850
Mean motion
15.34407752 rev/d
Perigee alt
462.1 km
Apogee alt
463.3 km
Semi-major
6,840.8 km
B*
7.8631e-4
RAAN
143.4652°
Arg perigee
95.0022°
Mean anomaly
265.1078°
Rev number
5,647

§ Raw data

STARLINK-352141 65747U 25216P   26263.95157894  .00026290  00000+0  78631-3 0  99982 65747  53.1567 143.4652 0000850  95.0022 265.1078 15.34407752 56473

JSON: /api/v1/satellites/65747 · /tle

For live sub-satellite position, see the globe view (requires WebGL).

§ Visibility from observer

Set your observer location to see the next 7 days of passes ≥ 10°. The values pass through the URL so the page stays shareable.

No JS? Fill the form by hand. The geolocation button needs JavaScript.